Wind_Speed
20 21 21 22 22 23 24 26 27 28 29 30 31 32 33 34 34 35 36 36 36 36 37 37 37 37 38 38 38 38 39 39 39 38 39 40 40 40 40 40 40 41 41
20 21 22 22 23 24 26 27 28 29 30 31 33 34 35 36 36 37 37 37 37 37 38 38 38 38 38 38 39 39 39 39 39 39 39 40 40 40 40 41 40 40 40
20 21 22 22 24 25 27 28 29 30 31 33 34 36 37 38 38 38 38 38 38 39 38 38 38 38 38 38 39 39 39 40 40 40 39 40 40 41 41 41 41 41 41
21 22 23 23 25 26 28 29 30 32 33 35 37 39 39 40 40 39 39 39 39 39 38 37 37 37 37 38 38 39 40 40 41 41 40 40 41 41 41 42 42 41 42
22 23 24 25 26 27 29 30 32 33 35 37 39 40 41 41 41 41 40 40 40 39 38 38 37 37 37 37 37 38 39 40 41 42 41 41 41 41 42 42 42 42 42
24 25 26 26 28 29 30 32 34 35 37 39 41 42 43 43 42 42 41 40 39 39 38 38 37 37 37 37 37 37 37 38 39 40 41 41 41 42 42 42 42 42 42
25 27 28 29 30 31 33 34 36 38 39 41 43 44 44 44 43 42 41 40 39 38 37 36 36 36 35 35 35 35 36 37 38 39 39 40 41 42 43 43 43 43 42
27 29 30 31 32 33 35 36 38 39 41 43 45 45 45 45 44 43 41 40 38 37 37 36 36 35 35 33 33 33 34 35 36 38 39 40 41 42 43 43 43 43 43
30 31 33 34 35 36 37 39 40 41 42 45 46 46 45 45 44 43 41 39 38 37 36 36 35 34 33 32 32 32 33 34 36 37 38 38 40 42 43 44 44 44 44
32 34 36 37 38 38 39 40 41 43 44 45 46 46 46 45 44 43 41 39 38 37 36 35 34 32 32 32 32 32 32 33 35 36 37 38 39 41 42 44 45 45 44
35 37 38 40 41 40 41 42 43 44 45 46 47 46 46 45 43 42 40 39 38 36 35 34 33 31 31 31 31 31 32 32 33 35 36 37 38 40 42 43 44 46 45
38 39 41 42 44 43 44 44 45 46 47 47 47 47 46 45 43 41 39 38 37 35 34 33 32 30 30 29 29 29 30 30 31 32 33 35 36 38 40 42 43 45 46
40 42 43 44 45 46 47 47 47 48 49 49 48 47 46 45 42 40 38 37 37 35 34 33 31 30 29 29 29 29 29 29 29 29 30 31 34 37 39 41 43 45 46
43 44 45 46 46 47 48 49 49 51 51 49 49 48 46 44 42 40 38 37 36 35 33 32 30 29 28 28 28 28 27 27 26 27 28 29 31 34 37 40 42 44 45
46 47 47 48 48 49 49 50 52 51 49 49 49 48 46 43 41 39 38 37 36 34 33 31 29 28 27 26 26 26 25 24 24 25 25 26 28 31 33 37 40 42 44
48 49 49 50 51 51 52 52 52 51 50 48 47 47 45 43 40 38 37 36 35 33 32 30 27 26 26 25 25 24 23 23 23 22 22 23 25 27 30 34 37 40 42
51 51 51 52 52 54 54 54 53 51 50 49 47 45 44 41 39 37 35 34 33 31 30 28 26 26 25 24 23 22 22 22 22 21 21 21 23 25 29 32 35 37 39
52 52 52 53 54 54 54 53 52 51 50 48 46 44 42 39 37 35 33 32 31 30 28 27 26 25 24 23 22 22 21 20 19 18 19 20 21 24 27 30 33 36 37
53 53 54 55 55 54 54 53 52 51 49 47 45 43 41 37 35 33 32 31 29 28 27 26 26 24 24 23 21 21 20 18 16 16 16 18 19 22 25 28 31 33 36
55 55 55 56 55 54 53 52 51 50 47 45 42 40 38 36 33 31 30 29 28 27 26 26 25 24 23 22 21 20 18 16 14 14 15 16 19 21 24 27 29 32 34
57 56 56 57 56 55 53 52 50 48 45 43 40 38 35 33 32 30 29 28 27 26 25 25 24 23 22 20 19 18 16 14 12 12 13 15 17 19 22 25 28 30 33
58 57 57 57 56 55 53 51 49 45 43 40 37 35 33 31 30 29 28 27 26 25 24 24 24 22 21 19 18 17 15 13 12 11 11 13 16 19 21 24 26 28 30
59 59 58 57 55 54 52 49 46 43 40 37 35 33 31 29 29 27 26 25 24 24 23 23 22 21 19 18 17 16 14 12 12 11 11 12 15 18 20 23 25 27 29
59 58 57 55 53 51 49 45 42 40 37 34 32 30 28 28 27 26 25 23 23 23 22 21 20 19 18 16 15 15 14 13 12 12 13 14 15 18 20 22 23 25 28
56 55 53 51 49 46 44 41 38 36 33 31 28 26 26 26 25 24 23 22 22 21 20 19 19 18 17 16 15 14 14 13 13 13 14 15 16 18 20 22 23 25 27
52 50 48 46 43 40 38 35 34 31 29 27 25 24 24 23 23 22 22 21 20 20 19 18 18 18 18 16 15 14 13 13 13 14 14 15 17 19 20 22 23 25 26
Wind_Direction
328 327 327 326 326 325 324 323 322 322 322 321 320 319 318 316 313 310 307 305 302 298 295 292 288 285 281 278 275 272 270 267 265 262 260 258 255 253 250 247 246 244 242
325 324 324 324 324 324 324 324 324 323 323 323 323 322 320 318 316 313 310 307 304 300 297 293 289 285 281 278 275 272 270 267 264 261 259 257 254 252 250 247 245 243 240
322 322 321 321 322 323 324 324 324 324 324 325 325 324 323 321 318 316 313 309 306 302 298 294 290 286 282 279 276 273 270 267 264 261 259 256 253 251 249 247 245 243 240
320 321 320 320 322 323 324 324 325 325 325 325 325 324 323 322 320 318 314 311 308 304 300 295 292 288 284 280 277 274 271 267 263 260 258 256 253 249 248 246 244 242 240
318 319 319 319 321 323 324 324 324 325 325 325 325 325 324 323 321 319 316 312 309 305 301 297 293 289 286 282 278 275 271 267 264 260 256 254 251 248 246 244 242 240 239
315 317 318 319 320 320 321 322 323 323 324 325 325 325 325 323 321 320 317 314 310 305 301 298 294 291 288 284 279 275 271 268 264 260 256 253 250 247 245 243 240 238 237
313 315 316 317 318 318 319 321 322 323 323 323 324 324 325 323 322 320 318 315 312 307 304 300 297 293 289 284 280 277 273 269 265 261 257 253 248 245 243 241 238 236 235
312 313 314 315 316 316 317 320 322 323 323 324 324 325 324 324 322 320 318 315 312 309 305 302 298 295 290 286 282 279 276 271 267 261 256 252 248 244 242 240 238 236 234
311 312 312 313 313 314 316 319 321 323 323 324 324 324 324 323 322 320 318 315 313 310 306 303 300 296 292 288 285 282 278 274 269 264 257 251 248 244 242 239 237 235 234
310 312 312 311 311 313 315 317 319 322 324 324 324 324 324 324 322 320 318 316 314 311 308 304 301 296 293 289 287 285 280 275 270 264 258 252 248 244 241 238 236 234 232
310 311 313 312 311 311 313 315 318 320 323 324 324 324 324 323 321 319 317 316 315 312 309 306 302 297 294 291 289 286 282 278 272 266 259 254 248 244 241 237 234 232 230
310 311 312 313 313 312 313 315 317 319 321 322 322 322 322 322 321 320 318 317 316 313 311 308 304 299 296 293 290 288 285 281 275 268 261 254 248 244 239 235 232 230 228
307 309 310 313 314 314 315 315 317 319 319 319 320 321 322 322 321 320 319 318 317 314 312 309 305 301 297 293 291 290 288 283 277 270 262 255 248 242 237 232 229 227 226
304 307 308 310 312 313 315 315 315 317 317 317 319 320 321 321 320 319 318 317 317 315 313 310 307 304 299 296 292 291 290 285 278 271 262 254 247 241 235 230 227 225 224
303 305 307 309 309 311 313 314 314 315 315 316 317 318 319 319 318 318 318 318 317 316 314 311 307 305 302 299 296 295 293 288 281 273 262 253 245 238 231 226 224 222 221
302 304 305 307 308 309 310 312 313 314 314 315 315 316 317 317 316 316 316 317 316 316 315 313 309 306 303 300 299 298 296 291 284 274 262 251 243 235 228 223 221 220 219
301 302 303 303 305 307 308 309 310 311 312 313 313 314 314 314 314 313 315 316 316 315 315 314 310 308 306 303 301 300 299 295 285 273 261 250 241 234 226 220 217 216 216
299 300 301 301 302 304 306 306 306 308 310 311 311 311 312 312 312 311 312 314 315 315 314 314 311 308 307 305 302 301 300 298 288 273 259 248 240 232 224 218 215 214 214
297 298 299 299 300 302 303 304 304 306 307 308 308 309 309 310 309 309 311 313 314 313 313 313 312 308 306 305 303 302 301 298 289 273 258 246 237 229 221 215 212 212 212
295 296 297 298 299 300 300 301 302 303 304 305 306 306 306 306 306 307 309 311 312 312 312 313 313 311 307 304 303 303 300 295 286 272 257 242 232 224 217 214 212 211 210
294 295 296 296 297 297 297 298 298 299 300 301 302 302 302 304 305 306 307 308 309 309 309 311 313 311 308 303 302 301 298 294 285 270 253 238 228 220 215 213 211 210 210
294 294 293 294 294 294 295 295 295 296 297 298 297 296 299 299 301 303 305 306 307 307 307 310 311 311 307 302 300 298 293 288 280 265 248 234 224 218 215 212 210 208 209
292 292 291 291 291 291 291 292 291 291 292 292 292 292 294 296 299 300 302 305 306 306 307 309 310 310 307 300 295 292 287 281 273 261 247 234 223 215 212 210 211 210 208
291 291 290 290 289 289 289 289 287 286 285 286 287 287 287 291 295 297 300 302 304 305 306 309 309 309 306 301 294 289 283 274 268 258 244 235 226 218 214 213 212 212 211
291 290 290 289 288 287 286 285 283 281 280 281 281 281 282 286 291 293 296 299 301 303 304 306 307 306 305 302 295 286 278 268 258 250 241 233 226 220 217 214 213 213 214
291 290 289 288 286 284 283 281 278 277 275 274 274 274 276 281 286 289 293 296 299 302 302 304 307 306 305 305 301 288 276 266 256 247 240 231 227 222 218 214 213 215 215
Height
5835 5833 5831 5829 5827 5824 5821 5818 5814 5810 5806 5803 5799 5795 5791 5786 5782 5778 5774 5770 5767 5763 5760 5757 5755 5752 5751 5750 5749 5749 5749 5750 5751 5753 5755 5757 5760 5763 5767 5771 5775 5779 5784
5833 5831 5828 5826 5823 5820 5817 5813 5809 5805 5801 5797 5792 5788 5783 5779 5774 5769 5765 5760 5756 5753 5749 5746 5744 5741 5740 5738 5737 5737 5738 5738 5739 5742 5743 5746 5749 5752 5756 5760 5764 5768 5773
5830 5827 5825 5822 5819 5816 5812 5808 5804 5800 5795 5791 5786 5781 5776 5771 5765 5760 5755 5750 5746 5742 5738 5735 5732 5730 5728 5727 5725 5725 5725 5726 5727 5729 5732 5734 5737 5741 5744 5748 5753 5757 5762
5826 5823 5821 5818 5814 5811 5807 5803 5799 5794 5789 5784 5779 5773 5768 5762 5756 5751 5745 5740 5735 5731 5727 5724 5721 5718 5716 5715 5714 5713 5713 5714 5715 5717 5720 5722 5725 5729 5733 5737 5742 5746 5751
5822 5819 5816 5813 5809 5805 5801 5797 5793 5788 5782 5777 5771 5765 5759 5753 5747 5741 5736 5730 5725 5720 5716 5712 5709 5707 5705 5703 5702 5701 5701 5701 5702 5704 5707 5710 5713 5717 5721 5725 5730 5735 5741
5817 5814 5811 5807 5804 5800 5796 5791 5786 5781 5775 5770 5764 5757 5750 5744 5738 5732 5726 5720 5715 5710 5705 5701 5698 5695 5693 5691 5690 5689 5688 5689 5690 5691 5694 5698 5701 5704 5709 5713 5719 5724 5730
5812 5808 5805 5801 5797 5793 5789 5784 5779 5774 5768 5762 5755 5749 5742 5735 5728 5722 5715 5710 5704 5699 5695 5691 5687 5684 5681 5679 5678 5677 5676 5676 5677 5679 5681 5685 5688 5692 5697 5702 5707 5712 5719
5806 5802 5799 5795 5791 5786 5782 5777 5771 5766 5760 5753 5747 5740 5733 5726 5719 5712 5706 5700 5695 5689 5685 5680 5676 5673 5670 5668 5667 5666 5665 5664 5665 5666 5669 5672 5675 5679 5684 5690 5695 5701 5707
5799 5796 5792 5788 5784 5779 5774 5769 5763 5757 5751 5744 5738 5730 5723 5716 5709 5702 5696 5690 5685 5680 5675 5670 5666 5663 5660 5657 5656 5654 5653 5652 5652 5653 5656 5659 5662 5666 5671 5677 5683 5689 5697
5792 5789 5784 5780 5775 5771 5766 5760 5754 5748 5742 5735 5728 5721 5714 5707 5699 5693 5686 5681 5676 5670 5665 5660 5656 5653 5650 5647 5645 5643 5642 5641 5640 5641 5643 5646 5649 5653 5658 5664 5671 5678 5685
5784 5780 5776 5771 5766 5762 5757 5751 5745 5739 5733 5726 5719 5712 5705 5698 5691 5684 5678 5672 5666 5661 5655 5651 5646 5643 5640 5637 5634 5632 5630 5629 5628 5628 5630 5632 5636 5640 5646 5652 5659 5666 5673
5775 5771 5767 5762 5757 5752 5747 5741 5736 5730 5724 5717 5710 5703 5696 5689 5682 5675 5669 5663 5657 5651 5646 5641 5637 5634 5630 5627 5625 5622 5620 5618 5616 5616 5617 5620 5623 5628 5633 5639 5646 5653 5661
5766 5762 5757 5752 5747 5742 5736 5731 5726 5720 5714 5707 5700 5694 5687 5679 5673 5666 5660 5654 5648 5643 5638 5633 5628 5624 5621 5618 5615 5612 5610 5608 5606 5606 5606 5608 5611 5615 5620 5627 5634 5641 5649
5756 5752 5747 5742 5737 5732 5727 5721 5715 5710 5703 5696 5690 5683 5677 5670 5664 5657 5651 5646 5640 5635 5629 5624 5620 5616 5612 5609 5606 5604 5601 5598 5596 5596 5596 5598 5600 5604 5609 5615 5622 5630 5637
5746 5741 5736 5732 5727 5722 5717 5711 5705 5700 5693 5686 5680 5673 5667 5662 5655 5649 5642 5637 5631 5626 5621 5616 5612 5608 5605 5601 5598 5595 5592 5590 5588 5587 5587 5588 5591 5594 5598 5604 5611 5619 5627
5734 5730 5725 5720 5715 5710 5705 5700 5694 5688 5683 5676 5670 5664 5658 5652 5646 5640 5635 5629 5624 5618 5613 5609 5605 5601 5597 5594 5591 5588 5585 5582 5580 5579 5579 5580 5582 5586 5590 5595 5602 5610 5618
5722 5718 5713 5708 5703 5698 5693 5687 5682 5678 5672 5666 5660 5655 5649 5643 5638 5632 5627 5622 5616 5611 5607 5602 5598 5594 5591 5587 5584 5581 5578 5575 5573 5572 5572 5573 5576 5579 5583 5588 5595 5602 5610
5710 5705 5701 5696 5691 5686 5681 5676 5671 5666 5661 5655 5650 5645 5640 5635 5629 5624 5619 5615 5609 5605 5600 5596 5592 5588 5584 5581 5577 5574 5572 5569 5567 5565 5566 5567 5569 5572 5576 5582 5588 5595 5603
5696 5691 5687 5682 5678 5673 5668 5663 5659 5654 5649 5644 5640 5635 5630 5626 5621 5616 5611 5607 5603 5598 5594 5590 5586 5582 5578 5575 5571 5568 5566 5563 5561 5560 5561 5562 5564 5567 5571 5576 5582 5589 5596
5681 5677 5672 5668 5663 5659 5655 5650 5646 5642 5638 5633 5629 5625 5621 5616 5612 5608 5604 5600 5596 5592 5588 5584 5580 5576 5572 5569 5566 5563 5560 5558 5557 5556 5556 5557 5559 5562 5566 5572 5577 5584 5591
5666 5662 5657 5653 5649 5645 5641 5637 5633 5629 5625 5622 5618 5615 5611 5607 5604 5600 5597 5593 5589 5585 5582 5578 5574 5570 5567 5564 5561 5558 5556 5554 5553 5552 5552 5553 5556 5559 5563 5568 5573 5579 5585
5649 5645 5641 5637 5633 5629 5626 5623 5619 5616 5613 5611 5608 5604 5602 5599 5596 5593 5589 5586 5582 5579 5575 5572 5568 5565 5562 5559 5556 5554 5552 5551 5550 5549 5549 5550 5552 5556 5560 5564 5569 5575 5580
5632 5628 5624 5620 5616 5613 5611 5608 5606 5603 5601 5599 5597 5594 5592 5590 5588 5585 5582 5579 5576 5573 5569 5566 5563 5560 5557 5554 5552 5550 5548 5547 5546 5546 5547 5548 5550 5553 5557 5561 5566 5571 5576
5613 5609 5605 5602 5599 5597 5595 5593 5592 5590 5589 5588 5586 5585 5583 5581 5580 5578 5575 5572 5570 5567 5564 5561 5557 5554 5552 5549 5547 5545 5544 5543 5543 5543 5544 5546 5548 5551 5554 5558 5562 5567 5572
5594 5590 5587 5584 5582 5581 5579 5578 5578 5577 5576 5576 5576 5575 5574 5573 5572 5570 5568 5566 5564 5561 5558 5555 5552 5550 5547 5545 5542 5541 5540 5539 5539 5540 5541 5543 5545 5548 5551 5554 5559 5563 5568
5575 5572 5569 5568 5566 5565 5565 5565 5565 5565 5566 5566 5566 5567 5566 5566 5565 5564 5562 5560 5558 5555 5553 5550 5548 5545 5542 5540 5538 5536 5535 5535 5535 5536 5537 5539 5541 5544 5547 5551 5555 5559 5563